DateTimeUTC,F1_A11,F1_S11,BsB_S11,BsG_S11,BsR_S11,BbsB_S11,BbsG_S11,BbsR_S11,BaB_A11,BaG_A11,BaR_A11,Tu_S11,T_S11,Uu_S11,U_S11,P_S11,T1_A11
2021-08-15T07:00:00Z,00000200,20000000,,,,,,,0000.30,0000.18,0000.33,18.7,25.1,17.1,11.6,0674.0,30.9
2021-08-15T07:01:00Z,00000200,20000000,,,,,,,-000.25,-000.16,-000.16,18.7,25.1,17.1,11.6,0674.0,30.9
2021-08-15T07:02:00Z,00000200,20000000,,,,,,,0000.50,0000.05,0000.24,18.7,25.1,17.1,11.6,0674.0,30.9
2021-08-15T07:03:00Z,00000200,60000000,,,,,,,0000.31,0000.28,-000.03,18.7,25.1,17.1,11.6,0674.0,30.9
2021-08-15T07:04:00Z,00000200,40000000,0000.65,0000.31,-000.01,-000.08,0000.22,0000.04,-000.09,-000.07,0000.34,18.9,25.0,17.2,11.9,0674.9,30.9
2021-08-15T07:05:00Z,00000200,00000000,-000.07,-000.05,0000.11,-000.18,0000.14,-000.06,-000.20,0000.16,-000.19,18.9,25.0,17.2,11.9,0675.0,30.9
2021-08-15T07:06:00Z,00000200,00000000,0000.38,0000.26,0000.11,0000.45,0000.31,-000.05,0000.01,-000.15,-000.00,18.9,25.0,17.3,12.0,0675.0,30.9
2021-08-15T07:07:00Z,00000200,00000000,0000.00,0000.19,0000.12,0000.35,0000.04,-000.13,-000.18,0000.06,-000.18,18.9,24.9,17.3,12.0,0675.0,30.9
2021-08-15T07:08:00Z,00000200,00000000,0000.02,0000.39,0000.06,-000.28,-000.06,0000.10,0000.01,-000.32,-000.11,18.9,25.0,17.4,12.1,0675.0,30.9
2021-08-15T07:09:00Z,00000200,00000000,0000.09,0000.51,0000.51,0000.28,0000.26,0000.47,0000.19,0000.31,0000.28,18.9,24.9,17.3,12.0,0675.0,30.9
2021-08-15T07:10:00Z,00000200,00000000,-000.94,0000.07,0000.10,0000.56,0000.11,-000.19,-000.14,-000.05,0000.05,18.9,24.9,17.3,12.0,0675.0,30.9
2021-08-15T07:11:00Z,00000200,00000000,-000.94,-000.14,0000.05,-000.03,-000.16,-000.14,0000.17,-000.13,0000.08,19.0,24.9,17.2,12.0,0675.0,30.9
2021-08-15T07:12:00Z,00000200,00000000,0000.51,0000.19,0000.04,0000.30,0000.28,-000.07,-000.26,-000.13,-000.36,19.0,24.9,17.2,12.0,0675.0,30.9
2021-08-15T07:13:00Z,00000200,00000000,0000.30,0000.33,-000.04,0000.71,0000.37,-000.11,0000.10,0000.04,-000.17,19.0,25.0,17.1,11.9,0675.0,30.9
2021-08-15T07:14:00Z,00000200,00000000,0000.28,0000.10,0000.00,0000.60,0000.15,0000.01,0000.15,-000.04,0000.26,19.1,25.0,17.0,11.9,0675.1,30.9
2021-08-15T07:15:00Z,00000200,00000000,-000.04,0000.00,0000.05,0000.51,0000.20,-000.24,-000.27,-000.01,-000.03,19.0,25.0,16.9,11.8,0675.1,30.9
2021-08-15T07:16:00Z,00000200,00000000,0000.53,-000.18,-000.07,-000.02,0000.12,-000.08,0000.35,0000.21,-000.16,19.1,25.0,16.9,11.8,0675.1,30.9
2021-08-15T07:17:00Z,00000200,00000000,0000.02,0000.05,0000.34,0000.86,0000.27,0000.13,-000.43,-000.19,0000.14,19.1,25.0,16.9,11.8,0675.1,30.9
2021-08-15T07:18:00Z,00000200,00000000,-000.07,0000.17,0000.12,0000.29,0000.28,-000.09,0000.07,-000.26,-000.26,19.1,25.0,16.9,11.8,0675.1,30.9
2021-08-15T07:19:00Z,00000200,00000000,0000.05,0000.13,0000.06,0000.11,0000.01,-000.12,-000.13,0000.15,0000.13,19.1,25.0,16.9,11.8,0675.1,30.9
2021-08-15T07:20:00Z,00000200,00000000,0000.16,0000.08,-000.02,0000.37,0000.05,-000.11,-000.11,-000.04,-000.21,19.1,25.0,16.8,11.7,0675.1,30.9
2021-08-15T07:21:00Z,00000200,00000000,0000.19,0000.20,-000.02,-000.04,-000.03,-000.18,0000.38,0000.13,0000.14,19.1,25.0,16.8,11.7,0675.1,30.9
2021-08-15T07:22:00Z,00000200,00000000,0000.05,0000.06,0000.09,-000.27,0000.45,0000.30,-000.24,-000.15,-000.12,19.1,25.0,16.7,11.7,0675.1,30.9
2021-08-15T07:23:00Z,00000200,00000000,-000.12,0000.13,0000.10,-000.05,0000.32,-000.23,0000.14,-000.02,-000.12,19.1,25.0,16.8,11.7,0675.1,30.9
2021-08-15T07:24:00Z,00000200,00000000,-000.68,0000.06,-000.17,0000.22,-000.12,0000.27,0000.01,-000.12,-000.00,19.1,25.0,16.8,11.7,0675.1,30.9
2021-08-15T07:25:00Z,00000200,00000000,-000.53,0000.22,0000.06,0000.06,-000.00,-000.15,-000.24,0000.16,0000.02,19.1,25.0,16.8,11.7,0675.1,30.9
2021-08-15T07:26:00Z,00000200,00000000,-000.17,0000.30,-000.22,-000.22,0000.24,0000.02,0000.09,0000.01,-000.17,19.1,25.0,16.7,11.7,0675.1,30.9
2021-08-15T07:27:00Z,00000200,00000000,-000.20,0000.40,0000.22,0000.30,-000.10,0000.04,-000.22,-000.28,0000.18,19.1,25.0,16.7,11.6,0675.1,30.9
2021-08-15T07:28:00Z,00000200,00000000,0000.07,-000.11,0000.27,0000.11,-000.08,0000.10,0000.10,0000.25,-000.12,19.1,25.0,16.7,11.6,0675.0,30.9
2021-08-15T07:29:00Z,00000200,00000000,0000.01,0000.27,-000.10,0000.17,0000.30,0000.01,-000.13,-000.37,0000.02,19.1,25.0,16.7,11.6,0675.1,30.9
2021-08-15T07:30:00Z,00000200,00000000,-000.11,0000.17,0000.02,0000.07,0000.48,0000.25,0000.31,0000.24,0000.01,19.1,25.0,16.6,11.6,0675.1,30.9
2021-08-15T07:31:00Z,00000200,00000000,-000.14,-000.05,0000.16,-000.08,-000.10,-000.23,-000.32,0000.03,-000.13,19.1,25.0,16.6,11.6,0675.0,30.9
2021-08-15T07:32:00Z,00000200,00000000,-000.47,0000.18,0000.41,-000.05,0000.29,0000.21,-000.05,-000.29,-000.09,19.1,25.0,16.5,11.5,0675.0,30.9
2021-08-15T07:33:00Z,00000200,00000000,-000.33,-000.20,0000.18,0000.22,-000.01,0000.17,0000.20,-000.01,0000.12,19.1,25.0,16.5,11.5,0675.1,30.9
2021-08-15T07:34:00Z,00000200,00000000,0000.19,0000.28,-000.12,-000.17,0000.08,0000.18,-000.28,-000.29,-000.10,19.0,25.0,16.5,11.5,0675.1,30.9
2021-08-15T07:35:00Z,00000200,00000000,0000.27,0000.14,-000.34,0000.33,0000.07,-000.10,0000.19,0000.31,0000.08,19.0,25.0,16.5,11.5,0675.1,30.9
2021-08-15T07:36:00Z,00000200,00000000,0000.73,-000.00,-000.06,0000.66,0000.25,0000.05,-000.50,-000.19,-000.49,19.0,25.0,16.4,11.4,0675.1,30.9
2021-08-15T07:37:00Z,00000200,00000000,-000.11,0000.34,0000.19,-000.03,0000.29,-000.11,0000.47,0000.34,0000.32,19.0,25.0,16.3,11.4,0675.1,30.9
2021-08-15T07:38:00Z,00000200,00000000,-000.46,0000.02,-000.07,0000.16,-000.22,-000.02,-000.35,-000.31,0000.11,19.0,25.0,16.3,11.3,0675.1,30.9
2021-08-15T07:39:00Z,00000200,00000000,0000.74,0000.17,0000.54,0000.64,-000.12,-000.06,0000.15,0000.01,-000.51,19.0,25.0,16.2,11.3,0675.1,30.9
2021-08-15T07:40:00Z,00000200,00000000,0000.17,0000.38,0000.23,0000.54,0000.05,-000.04,0000.28,0000.30,0000.42,19.0,25.0,16.1,11.3,0675.1,30.9
2021-08-15T07:41:00Z,00000200,00000000,0000.17,0000.28,0000.36,0000.22,-000.11,-000.08,-000.26,0000.09,-000.28,19.0,25.0,16.1,11.2,0675.1,30.9
2021-08-15T07:42:00Z,00000200,00000000,0000.91,0000.17,0000.27,0000.13,-000.02,-000.13,0000.00,-000.01,0000.24,19.0,25.0,16.1,11.2,0675.1,30.9
2021-08-15T07:43:00Z,00000200,00000000,0000.27,0000.42,0000.27,0000.27,-000.05,0000.11,0000.17,-000.42,0000.09,19.0,25.0,16.1,11.2,0675.2,30.9
2021-08-15T07:44:00Z,00000200,00000000,0000.31,0000.53,0000.54,0000.22,0000.11,-000.11,-000.05,0000.44,0000.20,19.0,25.0,16.0,11.2,0675.2,30.9
2021-08-15T07:45:00Z,00000200,00000000,0001.17,0000.56,0000.49,0000.31,0000.44,0000.02,0000.20,-000.02,-000.12,19.0,25.0,16.0,11.1,0675.1,30.9
2021-08-15T07:46:00Z,00000200,00000000,0000.88,0000.43,0000.47,-000.02,0000.33,-000.03,0000.22,0000.28,0000.08,19.0,25.0,15.9,11.1,0675.2,30.9
2021-08-15T07:47:00Z,00000200,00000000,0000.93,0000.32,0000.39,0000.28,0000.12,-000.08,-000.26,-000.38,-000.51,19.0,25.0,15.9,11.1,0675.2,30.9
2021-08-15T07:48:00Z,00000200,00000000,0001.40,0000.70,0000.39,0000.51,-000.19,0000.01,0000.30,0000.22,0000.65,19.0,25.0,15.9,11.1,0675.2,30.9
2021-08-15T07:49:00Z,00000200,00000000,0000.52,0000.51,0000.16,0000.11,0000.30,0000.06,0000.11,-000.02,-000.14,19.0,25.0,15.8,11.0,0675.2,30.9
2021-08-15T07:50:00Z,00000200,00000000,0001.37,0000.43,0000.54,0000.08,0000.04,0000.07,0000.44,0000.35,0000.01,19.0,25.0,15.8,11.0,0675.2,30.9
2021-08-15T07:51:00Z,00000200,00000000,0000.67,0000.73,0000.79,0000.12,0000.01,0000.24,-000.39,0000.41,0000.33,19.0,25.0,15.7,10.9,0675.2,30.9
2021-08-15T07:52:00Z,00000200,00000000,0001.14,0001.27,0000.93,0000.54,0000.41,0000.39,0000.11,-000.13,-000.22,19.0,25.0,15.6,10.9,0675.2,30.9
2021-08-15T07:53:00Z,00000200,00000000,0002.13,0001.18,0000.72,0000.03,0000.08,0000.25,0000.18,0000.34,-000.00,19.1,25.0,15.5,10.8,0675.2,30.9
2021-08-15T07:54:00Z,00000200,00000000,0002.20,0001.43,0000.98,0000.16,0000.45,0000.11,0000.48,-000.14,0000.32,19.0,25.0,15.4,10.7,0675.2,30.9
2021-08-15T07:55:00Z,00000200,00000000,0002.14,0001.59,0000.72,-000.18,0000.38,0000.16,0000.49,0000.33,0000.23,19.0,24.9,15.3,10.7,0675.2,30.9
2021-08-15T07:56:00Z,00000200,00000000,0002.23,0001.32,0001.04,0000.19,0000.35,0000.37,0000.26,0000.44,0000.31,19.0,24.9,15.2,10.6,0675.2,30.9
2021-08-15T07:57:00Z,00000200,40000000,,,,,,,0000.45,0000.63,0000.45,19.1,25.0,15.6,10.9,0675.2,30.9
2021-08-15T07:58:00Z,00000200,60000000,,,,,,,-000.24,-000.31,-000.24,18.8,25.0,15.8,10.7,0674.2,30.9
2021-08-15T07:59:00Z,00000200,20000000,,,,,,,0000.05,-000.04,0000.23,18.8,25.1,15.7,10.7,0674.2,30.9
